Flight Track Log - Related Links

Times and Time Zones

All times are in EDT time to prevent confusion due to time zone crossing. See the SWA1802 flight status page for this flight to view local times or setup timezone preferences in your user account.

Time Position Orientation Groundspeed Altitude Reporting Facility
EDT Latitude Longitude Course Direction KTS MPH feet Rate Location/Type
Sun 06:43:48 PM 41.7500 -87.7000 283° West 175 201 2,700  Level Chicago TRACON
Sun 06:44:49 PM 41.7117 -87.7103 191° South 263 303 4,000 634 Climbing Chicago Center
Sun 06:45:51 PM 41.7186 -87.8100 275° West 275 316 4,000 1,210 Level Chicago Center
Sun 06:46:53 PM 41.7536 -87.9258 292° West 296 341 6,500 2,806 Climbing Chicago Center
Sun 06:47:55 PM 41.7939 -88.0186 300° West 292 336 9,800 2,952 Climbing Chicago Center
Sun 06:48:57 PM 41.7986 -88.1247 273° West 288 331 12,600 2,177 Climbing Chicago Center
Sun 06:49:00 PM 41.9328 -88.6628 283° West  Level FlightAware Approximate
Sun 06:49:59 PM 41.8008 -88.2397 272° West 308 354 14,300  Level Chicago Center
Sun 06:51:01 PM 41.8058 -88.3964 273° West 350 403 17,000 2,661 Climbing Chicago Center
Sun 06:52:03 PM 41.7875 -88.5283 259° West 361 415 19,800 2,419 Climbing Chicago Center
Sun 06:53:05 PM 41.7608 -88.6508 254° West 349 402 22,000 1,742 Climbing Chicago Center
Sun 06:54:07 PM 41.7333 -88.7808 254° West 358 412 23,400 1,694 Climbing Chicago Center
Sun 06:55:09 PM 41.7069 -88.9475 258° West 382 440 25,500 1,742 Climbing Chicago Center
Sun 06:56:11 PM 41.6883 -89.0911 260° West 393 452 27,000 1,258 Climbing Chicago Center
Sun 06:57:13 PM 41.6711 -89.2378 261° West 401 461 28,100 816 Climbing Chicago Center
Sun 06:58:16 PM 41.6503 -89.3939 260° West 425 489 28,700 816 Climbing Chicago Center
Sun 06:59:18 PM 41.6289 -89.5628 260° West 444 511 29,800 1,306 Climbing Chicago Center
Sun 07:00:20 PM 41.6069 -89.7239 260° West 444 511 31,400 1,548 Climbing Chicago Center
Sun 07:01:22 PM 41.5872 -89.8817 261° West 433 498 33,000 1,355 Climbing Chicago Center
Sun 07:02:24 PM 41.5619 -90.0678 260° West 428 493 34,200 871 Climbing Chicago Center
Sun 07:03:26 PM 41.5414 -90.2264 260° West 434 499 34,800 774 Climbing Chicago Center
Sun 07:04:28 PM 41.5192 -90.3867 260° West 440 506 35,800 581 Climbing Chicago Center
Sun 07:05:30 PM 41.4964 -90.5461 259° West 440 506 36,000 97 Climbing Chicago Center
Sun 07:06:32 PM 41.4719 -90.7106 259° West 452 520 36,000  Level Chicago Center
Sun 07:07:34 PM 41.4492 -90.8711 259° West 446 513 36,000  Level Chicago Center
Sun 07:08:36 PM 41.4214 -91.0633 259° West 442 509 36,000  Level Chicago Center
Sun 07:09:38 PM 41.3983 -91.2272 259° West 450 518 36,000  Level Chicago Center
Sun 07:10:40 PM 41.3728 -91.3981 259° West 451 519 36,000  Level Chicago Center
Sun 07:11:43 PM 41.3475 -91.5619 258° West 453 521 36,000  Level Chicago Center
Sun 07:12:45 PM 41.3239 -91.7256 259° West 453 521 36,000  Level Chicago Center
Sun 07:13:47 PM 41.2986 -91.8881 258° West 453 521 36,000  Level Chicago Center
Sun 07:14:49 PM 41.2689 -92.0819 259° West 449 517 36,000  Level Chicago Center
Sun 07:15:51 PM 41.2436 -92.2442 258° West 452 520 36,000  Level Chicago Center
Sun 07:16:53 PM 41.2167 -92.4194 259° West 451 519 36,000  Level Chicago Center
Sun 07:17:55 PM 41.1906 -92.5794 258° West 449 517 36,000  Level Chicago Center
Sun 07:19:40 PM 41.1439 -92.8722 258° West 454 522 36,000  Level Minneapolis Center
Sun 07:20:42 PM 41.1186 -93.0322 258° West 452 520 36,000  Level Minneapolis Center
Sun 07:21:01 PM 41.1133 -93.0619 257° West 449 517 36,000  Level Chicago Center
Sun 07:21:44 PM 41.0925 -93.1869 258° West 443 510 36,000  Level Minneapolis Center
Sun 07:22:46 PM 41.0681 -93.3383 258° West 433 498 36,000  Level Minneapolis Center
Sun 07:23:48 PM 41.0411 -93.4950 257° West 438 504 36,000  Level Minneapolis Center
Sun 07:24:50 PM 41.0106 -93.6828 258° West 439 505 36,000  Level Minneapolis Center
Sun 07:25:52 PM 40.9839 -93.8375 257° West 438 504 36,000  Level Minneapolis Center
Sun 07:26:54 PM 40.9581 -93.9928 258° West 437 503 36,000  Level Minneapolis Center
Sun 07:27:56 PM 40.9300 -94.1483 257° West 439 505 36,000  Level Minneapolis Center
Sun 07:28:58 PM 40.8964 -94.3358 257° West 441 507 36,000  Level Minneapolis Center
Sun 07:30:00 PM 40.8692 -94.4919 257° West 440 506 36,000  Level Minneapolis Center
Sun 07:31:02 PM 40.8406 -94.6419 256° West 443 510 36,000  Level Minneapolis Center
Sun 07:32:04 PM 40.8114 -94.8022 257° West 447 514 36,000  Level Minneapolis Center
Sun 07:33:06 PM 40.7764 -94.9958 257° West 449 517 36,000  Level Minneapolis Center
Sun 07:34:08 PM 40.7467 -95.1597 257° West 454 522 36,000  Level Minneapolis Center
Sun 07:35:10 PM 40.7169 -95.3214 256° West 454 522 36,000  Level Minneapolis Center
Sun 07:36:13 PM 40.6872 -95.4847 257° West 454 522 36,000  Level Minneapolis Center
Sun 07:37:15 PM 40.6553 -95.6497 256° West 459 528 36,000  Level Minneapolis Center
Sun 07:38:17 PM 40.6258 -95.8114 257° West 455 524 36,000  Level Minneapolis Center
Sun 07:39:19 PM 40.5944 -95.9731 256° West 454 522 36,000  Level Minneapolis Center
Sun 07:40:21 PM 40.5581 -96.1642 256° West 449 517 36,000  Level Minneapolis Center
Sun 07:41:23 PM 40.5272 -96.3233 256° West 446 513 36,000  Level Minneapolis Center
Sun 07:42:25 PM 40.4967 -96.4819 256° West 446 513 36,000  Level Minneapolis Center
Sun 07:43:27 PM 40.4656 -96.6367 255° West 442 509 36,000  Level Minneapolis Center
Sun 07:44:29 PM 40.4353 -96.7908 256° West 438 504 36,000  Level Minneapolis Center
Sun 07:45:31 PM 40.4047 -96.9422 255° West 433 498 36,000  Level Minneapolis Center
Sun 07:46:33 PM 40.3744 -97.0933 255° West 430 495 36,000  Level Minneapolis Center
Sun 07:47:35 PM 40.3381 -97.2739 255° West 428 493 36,000  Level Minneapolis Center
Sun 07:48:37 PM 40.3064 -97.4242 255° West 425 489 36,000  Level Minneapolis Center
Sun 07:49:39 PM 40.2756 -97.5736 255° West 424 488 36,000  Level Minneapolis Center
Sun 07:50:41 PM 40.2450 -97.7228 255° West 424 488 36,000  Level Minneapolis Center
Sun 07:51:43 PM 40.2131 -97.8706 254° West 422 486 36,000  Level Minneapolis Center
Sun 07:52:45 PM 40.1819 -98.0200 255° West 424 488 36,000  Level Minneapolis Center
Sun 07:53:47 PM 40.1503 -98.1703 255° West 426 490 36,000  Level Minneapolis Center
Sun 07:54:49 PM 40.1117 -98.3503 254° West 427 491 36,000  Level Minneapolis Center
Sun 07:55:51 PM 40.0783 -98.5006 254° West 429 494 36,000  Level Minneapolis Center
Sun 07:56:53 PM 40.0464 -98.6514 255° West 429 494 36,000  Level Minneapolis Center
Sun 07:57:55 PM 40.0136 -98.8033 254° West 431 496 36,000  Level Minneapolis Center
Sun 07:58:30 PM 39.9931 -98.8956 254° West 433 498 36,000  Level Denver Center
Sun 07:59:32 PM 39.9592 -99.0481 254° West 436 502 36,000  Level Denver Center
Sun 08:00:34 PM 39.9261 -99.1958 254° West 427 491 36,000  Level Denver Center
Sun 08:01:36 PM 39.8919 -99.3456 253° West 429 494 36,000  Level Denver Center
Sun 08:02:03 PM 39.8794 -99.4067 255° West 432 497 36,000  Level Minneapolis Center
Sun 08:02:38 PM 39.8586 -99.4958 253° West 431 496 36,000  Level Denver Center
Sun 08:03:40 PM 39.8178 -99.6756 254° West 432 497 36,000  Level Denver Center
Sun 08:04:42 PM 39.7833 -99.8272 254° West 435 501 36,000  Level Denver Center
Sun 08:05:44 PM 39.7478 -99.9797 253° West 432 497 36,000  Level Denver Center
Sun 08:06:46 PM 39.7144 -100.1261 254° West 437 503 36,000  Level Denver Center
Sun 08:07:48 PM 39.6744 -100.2944 253° West 437 503 36,000  Level Denver Center
Sun 08:08:49 PM 39.6403 -100.4397 253° West 439 505 36,000  Level Denver Center
Sun 08:09:51 PM 39.5997 -100.6081 253° West 437 503 36,000  Level Denver Center
Sun 08:10:53 PM 39.5656 -100.7519 253° West 437 503 36,000  Level Denver Center
Sun 08:11:55 PM 39.5319 -100.8939 253° West 431 496 36,000  Level Denver Center
Sun 08:12:57 PM 39.4917 -101.0608 253° West 434 499 36,000  Level Denver Center
Sun 08:13:59 PM 39.4575 -101.2014 253° West 430 495 36,000  Level Denver Center
Sun 08:15:01 PM 39.4172 -101.3667 253° West 431 496 36,000  Level Denver Center
Sun 08:16:03 PM 39.3819 -101.5086 252° West 434 499 36,000  Level Denver Center
Sun 08:17:05 PM 39.3408 -101.6731 252° West 431 496 36,000  Level Denver Center
Sun 08:18:06 PM 39.3064 -101.8092 252° West 436 502 36,000  Level Denver Center
Sun 08:19:08 PM 39.2656 -101.9739 252° West 432 497 36,000  Level Denver Center
Sun 08:20:10 PM 39.2300 -102.1161 252° West 435 501 36,000  Level Denver Center
Sun 08:21:12 PM 39.1875 -102.2806 252° West 436 502 36,000  Level Denver Center
Sun 08:22:14 PM 39.1514 -102.4225 252° West 438 504 36,000  Level Denver Center
Sun 08:23:16 PM 39.1097 -102.5856 252° West 431 496 36,000  Level Denver Center
Sun 08:24:18 PM 39.0728 -102.7250 251° West 431 496 36,000  Level Denver Center
Sun 08:25:20 PM 39.0344 -102.8731 252° West 435 501 36,000  Level Denver Center
Sun 08:26:21 PM 38.9967 -103.0189 252° West 430 495 36,000  Level Denver Center
Sun 08:27:23 PM 38.9583 -103.1642 251° West 429 494 36,000  Level Denver Center
Sun 08:28:25 PM 38.9128 -103.3372 251° West 427 491 36,000  Level Denver Center
Sun 08:29:27 PM 38.8733 -103.4844 251° West 432 497 36,000  Level Denver Center
Sun 08:30:29 PM 38.8344 -103.6292 251° West 430 495 36,000  Level Denver Center
Sun 08:31:31 PM 38.7969 -103.7686 251° West 432 497 36,000  Level Denver Center
Sun 08:32:32 PM 38.7533 -103.9297 251° West 431 496 36,000  Level Denver Center
Sun 08:33:34 PM 38.7156 -104.0667 251° West 428 493 36,000  Level Denver Center
Sun 08:34:36 PM 38.6778 -104.2050 251° West 424 488 36,000  Level Denver Center
Sun 08:35:38 PM 38.6381 -104.3478 250° West 425 489 36,000  Level Denver Center
Sun 08:36:40 PM 38.5914 -104.5181 251° West 423 487 36,000  Level Denver Center
Sun 08:37:41 PM 38.5508 -104.6614 250° West 427 491 36,000  Level Denver Center
Sun 08:38:43 PM 38.5106 -104.8053 250° West 429 494 36,000  Level Denver Center
Sun 08:39:45 PM 38.4703 -104.9486 250° West 429 494 36,000  Level Denver Center
Sun 08:40:47 PM 38.4294 -105.0939 250° West 434 499 36,000  Level Denver Center
Sun 08:41:48 PM 38.3875 -105.2375 250° West 434 499 36,000  Level Denver Center
Sun 08:42:50 PM 38.3464 -105.3819 250° West 433 498 36,000  Level Denver Center
Sun 08:43:52 PM 38.2986 -105.5494 250° West 434 499 36,000  Level Denver Center
Sun 08:44:53 PM 38.2583 -105.6850 249° West 431 496 36,000  Level Denver Center
Sun 08:45:55 PM 38.2111 -105.8472 250° West 437 503 36,000  Level Denver Center
Sun 08:46:57 PM 38.1711 -105.9833 250° West 433 498 36,000  Level Denver Center
Sun 08:47:58 PM 38.1242 -106.1408 249° West 428 493 36,000  Level Denver Center
Sun 08:49:00 PM 38.0806 -106.2869 249° West 428 493 36,000  Level Denver Center
Sun 08:50:02 PM 38.0442 -106.4111 250° West 426 490 36,000  Level Denver Center
Sun 08:51:03 PM 37.9989 -106.5642 249° West 424 488 36,000  Level Denver Center
Sun 08:52:05 PM 37.9581 -106.6969 249° West 422 486 36,000  Level Denver Center
Sun 08:53:07 PM 37.9106 -106.8536 249° West 423 487 36,000  Level Denver Center
Sun 08:54:09 PM 37.8692 -106.9892 249° West 430 495 36,000  Level Denver Center
Sun 08:55:10 PM 37.8206 -107.1467 249° West 433 498 36,000  Level Denver Center
Sun 08:56:12 PM 37.7764 -107.2917 249° West 429 494 36,000  Level Denver Center
Sun 08:57:14 PM 37.7344 -107.4269 249° West 431 496 36,000  Level Denver Center
Sun 08:58:16 PM 37.6928 -107.5597 248° West 428 493 36,000  Level Denver Center
Sun 08:59:17 PM 37.6444 -107.7164 249° West 429 494 36,000  Level Denver Center
Sun 09:00:19 PM 37.6025 -107.8511 249° West 431 496 36,000  Level Denver Center
Sun 09:01:21 PM 37.5536 -108.0039 248° West 424 488 36,000  Level Denver Center
Sun 09:02:23 PM 37.5119 -108.1356 248° West 422 486 36,000  Level Denver Center
Sun 09:03:24 PM 37.4633 -108.2883 248° West 421 484 36,000  Level Denver Center
Sun 09:04:26 PM 37.4203 -108.4208 248° West 427 491 36,000  Level Denver Center
Sun 09:05:28 PM 37.3714 -108.5736 248° West 424 488 36,000  Level Denver Center
Sun 09:06:29 PM 37.3281 -108.7047 247° West 424 488 36,000  Level Denver Center
Sun 09:07:31 PM 37.2853 -108.8386 248° West 429 494 36,000  Level Denver Center
Sun 09:08:33 PM 37.2422 -108.9711 248° West 429 494 36,000  Level Denver Center
Sun 09:09:35 PM 37.1914 -109.1267 248° West 431 496 36,000  Level Denver Center
Sun 09:10:36 PM 37.1403 -109.2808 247° West 430 495 36,000  Level Denver Center
Sun 09:11:38 PM 37.0964 -109.4122 247° West 429 494 36,000  Level Denver Center
Sun 09:12:40 PM 37.0100 -109.5367 229° Southwest 438 504 36,000  Level Denver Center
Sun 09:13:41 PM 36.9103 -109.6067 209° Southwest 430 495 36,000  Level Denver Center
Sun 09:14:43 PM 36.7939 -109.6908 210° Southwest 432 497 36,000  Level Denver Center
Sun 09:15:45 PM 36.6947 -109.7611 210° Southwest 430 495 36,000  Level Denver Center
Sun 09:16:47 PM 36.5792 -109.8433 210° Southwest 429 494 36,000  Level Denver Center
Sun 09:17:48 PM 36.5006 -109.9425 225° Southwest 431 496 36,000  Level Denver Center
Sun 09:18:50 PM 36.4692 -110.0778 254° West 427 491 36,000  Level Denver Center
Sun 09:19:52 PM 36.4356 -110.2253 254° West 425 489 36,000  Level Denver Center
Sun 09:20:54 PM 36.4025 -110.3669 254° West 427 491 36,000  Level Denver Center
Sun 09:21:56 PM 36.3694 -110.5083 254° West 427 491 36,000  Level Denver Center
Sun 09:22:58 PM 36.3289 -110.6786 254° West 429 494 36,000  Level Denver Center
Sun 09:23:59 PM 36.2975 -110.8186 254° West 425 489 36,000  Level Denver Center
Sun 09:25:01 PM 36.2631 -110.9603 253° West 426 490 36,000  Level Denver Center
Sun 09:26:03 PM 36.2311 -111.1011 254° West 426 490 36,000  Level Denver Center
Sun 09:27:05 PM 36.1972 -111.2419 253° West 427 491 36,000  Level Denver Center
Sun 09:28:07 PM 36.1633 -111.3833 254° West 428 493 36,000  Level Denver Center
Sun 09:29:08 PM 36.1322 -111.4931 251° West 424 488 36,000  Level Denver Center
Sun 09:30:11 PM 36.0681 -111.6806 247° West 423 487 36,000  Level Denver Center
Sun 09:30:33 PM 36.0583 -111.7106 248° West 422 486 36,000  Level Los Angeles Center
Sun 09:31:35 PM 36.0058 -111.8711 248° West 422 486 36,000  Level Los Angeles Center
Sun 09:32:36 PM 35.9633 -111.9961 247° West 421 484 36,000  Level Los Angeles Center
Sun 09:33:39 PM 35.9192 -112.1278 248° West 421 484 36,000  Level Los Angeles Center
Sun 09:34:40 PM 35.8756 -112.2617 248° West 422 486 36,000  Level Los Angeles Center
Sun 09:35:42 PM 35.8297 -112.3939 247° West 423 487 36,000  Level Los Angeles Center
Sun 09:36:44 PM 35.7761 -112.5519 247° West 422 486 36,000  Level Los Angeles Center
Sun 09:37:45 PM 35.7317 -112.6842 248° West 421 484 36,000  Level Los Angeles Center
Sun 09:38:47 PM 35.6808 -112.8325 247° West 423 487 36,000  Level Los Angeles Center
Sun 09:39:49 PM 35.6381 -112.9578 247° West 423 487 36,000  Level Los Angeles Center
Sun 09:40:51 PM 35.5922 -113.0894 247° West 420 483 36,000  Level Los Angeles Center
Sun 09:41:53 PM 35.5469 -113.2208 247° West 416 479 36,000  Level Los Angeles Center
Sun 09:42:55 PM 35.4986 -113.3592 247° West 416 479 36,000  Level Los Angeles Center
Sun 09:43:57 PM 35.4531 -113.4883 247° West 416 479 36,000  Level Los Angeles Center
Sun 09:44:58 PM 35.4072 -113.6175 247° West 417 480 36,000  Level Los Angeles Center
Sun 09:46:00 PM 35.3528 -113.7728 247° West 417 480 36,000  Level Los Angeles Center
Sun 09:47:02 PM 35.3058 -113.9039 246° West 422 486 36,000  Level Los Angeles Center
Sun 09:48:04 PM 35.2608 -114.0322 247° West 417 480 36,000  Level Los Angeles Center
Sun 09:49:06 PM 35.2128 -114.1647 246° West 421 484 36,000  Level Los Angeles Center
Sun 09:50:08 PM 35.1653 -114.2964 246° West 423 487 36,000  Level Los Angeles Center
Sun 09:51:09 PM 35.1181 -114.4278 246° West 423 487 36,000  Level Los Angeles Center
Sun 09:52:11 PM 35.0586 -114.5897 246° West 429 494 36,000  Level Los Angeles Center
Sun 09:53:13 PM 35.0119 -114.7233 247° West 427 491 36,000  Level Los Angeles Center
Sun 09:54:15 PM 34.9622 -114.8567 246° West 431 496 36,000  Level Los Angeles Center
Sun 09:55:17 PM 34.9139 -114.9908 246° West 432 497 36,000  Level Los Angeles Center
Sun 09:56:19 PM 34.8642 -115.1217 245° Southwest 427 491 36,000  Level Los Angeles Center
Sun 09:57:20 PM 34.8150 -115.2561 246° West 431 496 36,000  Level Los Angeles Center
Sun 09:58:22 PM 34.7656 -115.3881 246° West 430 495 36,000  Level Los Angeles Center
Sun 09:59:24 PM 34.7064 -115.5481 246° West 430 495 36,000  Level Los Angeles Center
Sun 10:00:26 PM 34.6583 -115.6753 245° Southwest 428 493 36,000  Level Los Angeles Center
Sun 10:01:28 PM 34.6100 -115.8058 246° West 423 487 36,000  Level Los Angeles Center
Sun 10:02:29 PM 34.5603 -115.9356 245° Southwest 424 488 36,000  Level Los Angeles Center
Sun 10:03:31 PM 34.5119 -116.0650 246° West 422 486 36,000 -823 Level Los Angeles Center
Sun 10:04:33 PM 34.4631 -116.1933 245° Southwest 420 483 34,300 -2,129 Descending Los Angeles Center
Sun 10:05:35 PM 34.4119 -116.3256 245° Southwest 430 495 31,600 -2,634 Descending Los Angeles Center
Sun 10:06:36 PM 34.3503 -116.4853 245° Southwest 435 501 28,900 -2,000 Descending Los Angeles Center
Sun 10:07:38 PM 34.3033 -116.6078 245° Southwest 406 467 27,500 -1,548 Descending Los Angeles Center
Sun 10:08:40 PM 34.2564 -116.7281 245° Southwest 396 456 25,700 -1,887 Descending Los Angeles Center
Sun 10:09:42 PM 34.2106 -116.8450 245° Southwest 387 445 23,600 -2,049 Descending Los Angeles Center
Sun 10:10:43 PM 34.1658 -116.9586 245° Southwest 376 433 21,500 -2,098 Descending Los Angeles Center
Sun 10:11:45 PM 34.1164 -117.0853 245° Southwest 367 422 19,300 -2,226 Descending Los Angeles Center
Sun 10:12:47 PM 34.0708 -117.1897 242° Southwest 349 402 16,900 -2,190 Descending Los Angeles Center
Sun 10:13:51 PM 34.0500 -117.3000 257° West 348 400 14,700 -1,729 Descending Southern California TRACON
Sun 10:14:45 PM 34.0333 -117.4000 259° West 314 361 13,500 -1,579 Descending Southern California TRACON
Sun 10:15:45 PM 34.0167 -117.5000 259° West 298 343 11,700 -1,550 Descending Southern California TRACON
Sun 10:16:45 PM 34.0167 -117.6000 270° West 349 402 10,400 -900 Descending Southern California TRACON
Sun 10:17:45 PM 34.0000 -117.7000 259° West 271 312 9,900 -950 Descending Southern California TRACON
Sun 10:18:45 PM 34.0000 -117.8000 270° West 282 325 8,500 -1,350 Descending Southern California TRACON
Sun 10:19:45 PM 33.9833 -117.8833 256° West 274 315 7,200 -1,140 Descending Southern California TRACON
Sun 10:20:46 PM 33.9833 -117.9833 270° West 278 320 6,200 -992 Descending Southern California TRACON
Sun 10:21:46 PM 33.9667 -118.0667 256° West 281 323 5,200 -1,150 Descending Southern California TRACON
Sun 10:22:46 PM 33.9667 -118.1500 270° West 255 293 3,900 -1,231 Descending Southern California TRACON
Sun 10:23:04 PM 33.9592 -118.1711 247° West 267 307 3,600 -1,125 Descending Los Angeles Center
Sun 10:24:06 PM 33.9511 -118.2447 263° West 234 269 2,400 -1,065 Descending Los Angeles Center
Sun 10:25:08 PM 33.9453 -118.3081 264° West 211 243 1,400 -919 Descending Los Angeles Center
Sun 10:26:10 PM 33.9403 -118.3658 264° West 164 189 500 -537 Descending Los Angeles Center
Sun 10:27:11 PM 33.9358 -118.4100 263° West 157 181 300 -197 Descending Los Angeles Center
Sun 10:29:00 PM 33.9333 -118.4000 North  Level FlightAware Approximate

Login

Don't have an account? Register now (free) for customized features, flight alerts, and more!